Regional Weather Roundup
Issued by NWS Portland, ME

Home | Current Version | Previous Version | Text Only | Print | Product List | Glossary On
Versions: 1 2 3 4 5 6 7 8 9 10 11 12 13 14 15 16 17 18 19 20 21 22 23 24 25 26 27 28 29 30 31 32 33 34 35 36 37 38 39 40 41 42 43 44 45 46 47 48 49 50
000
ASUS41 KGYX 032110
RWRGYX
WEATHER ROUNDUP FOR MAINE AND NEW HAMPSHIRE
NATIONAL WEATHER SERVICE GRAY ME
400 PM EST TUE MAR 03 2015

MEZ002-005-006-010-012-015-018-020-021-024-026-027-029-032200-
MAINE

CITY           SKY/WX    TMP DP  RH WIND       PRES   REMARKS
PORTLAND       CLOUDY    28   7  41 S12       30.21F WCI  18
SANFORD        CLOUDY    28  -2  26 S7        30.18F
BAR HARBOR     MOSUNNY   27   0  31 S8        30.22F
WISCASSET      CLOUDY    26   3  37 SW7       30.22F
ROCKLAND       PTSUNNY   27   7  43 SW10      30.21F WCI  17
FRYEBURG       CLOUDY    29  -6  22 S9        30.14F
LEWISTONAUBURN CLOUDY    27   3  36 S10       30.16F WCI  17
AUGUSTA        CLOUDY    27  -3  27 S8        30.16F
WATERVILLE     PTSUNNY   28  -6  22 S5        30.13F
BANGOR         PTSUNNY   25  -4  28 SW8       30.19F
GREENVILLE       N/A     23  -8  25 S6        30.02F
MILLINOCKET    SUNNY     27  -6  23 W3        30.13F
HOULTON        SUNNY     23  -9  24 W6        30.11F
PRESQUE ISLE   SUNNY     23 -11  21 NW3       30.09F
FRENCHVILLE    SUNNY     19  -8  30 W8        30.02F
CARIBOU        SUNNY     21  -6  30 SW6       30.07F
$$

NHZ002-005-008-009-011-012-014-032200-
NEW HAMPSHIRE

CITY           SKY/WX    TMP DP  RH WIND       PRES   REMARKS
PORTSMOUTH     CLOUDY    28  10  46 SE13      30.18F WCI  17
ROCHESTER      CLOUDY    29  -2  26 S8        30.17F
NASHUA         CLOUDY    30   3  31 S7        30.20F
MANCHESTER     CLOUDY    30   2  30 S9        30.17F
CONCORD        CLOUDY    29   1  30 S13       30.16F WCI  19
LACONIA        CLOUDY    28  -4  24 S7        30.12F
PLYMOUTH       CLOUDY    29   4  34 CALM      30.12F
BERLIN         CLOUDY    27  -3  27 S8        30.04F
WHITEFIELD     CLOUDY    25  -4  28 CALM      30.04F
JAFFREY        CLOUDY    26   2  35 S13       30.12F WCI  15
KEENE          CLOUDY    28   3  34 S12       30.15F WCI  18
LEBANON        CLOUDY    28   4  35 S8        30.10F
MT WASHINGTON  CLOUDY     7 -15  36 SW37G45     N/A  WCI -19
$$

VTZ005-007-008-032200-
VERMONT

CITY           SKY/WX    TMP DP  RH WIND       PRES   REMARKS
ST JOHNSBURY     N/A     25  -2  31 MISG      30.05F
MONTPELIER     CLOUDY    23   0  36 S9        30.07F
BURLINGTON     CLOUDY    25   4  40 S14       30.05F WCI  13
$$

MAZ007-012-024-CTZ003-RIZ002-NYZ038-NYZ072-032200-
SOUTHERN NEW ENGLAND AND NY

CITY           SKY/WX    TMP DP  RH WIND       PRES   REMARKS
BOSTON         CLOUDY    30   8  39 S9        30.22F
WORCESTER      CLOUDY    26   4  38 S13       30.14F WCI  15
NANTUCKET      CLOUDY    27  10  49 S9        30.30F
PROVIDENCE     CLOUDY    28  10  46 S16       30.27F WCI  16
HARTFORD       CLOUDY    30   8  39 S13       30.20F WCI  20
ALBANY         LGT SNOW  24  16  71 S10G23    30.14F VSB 1   WCI  14
NEW YORK CITY  LGT SNOW  29  24  82 S14       30.24F WCI  18
$$

ANZ081-ANZ082-ANZ150-NHZ014-MEZ023>029-032200-
COASTAL MARINE OBSERVATIONS

STATION/POSITION TIME  TEMP    WIND        PRES    WAVE
                       AIR SEA DIR/SP/G            HT/PER
                 (UTC) (F)     (DEG/KT/KT) (MB)    (FT/S)
MOUNT DESERT ROC 2100   25                 1023.5F
MATINICUS ROCK   2100   26     230/ 12/ 14 1023.7F
WELLS            2000   27     190/ 14/ 18 1023.4F
ISLE OF SHOALS   2100   28     170/ 11/ 13 1022.2F
JEFFREYS LEDGE   2021      40                N/A     2/10
CASHES LEDGE BUO 2050   29 38              1023.4F   2/10
$$

.............KEY..............
   WCI - WIND CHILL
   TC  - TEMPERATURE IN CELSIUS
   VSB - VISIBILITY IN MILES
   HX  - HEAT INDEX
   FAIR- INDICATES FEW OR NO CLOUDS BELOW 12,000 FT, WITH NO
         SIGNIFICANT WEATHER AND/OR OBSTRUCTIONS TO VISIBILITY.




USA.gov is the U.S. government's official web portal to all federal, state and local government web resources and services.